Theta_e
353 350 347 347 346 342 337 333 316 323 320 310 312 313 312 326 326 321 320 323 318 327 331 329 326 326 325 320 320 325 327 318 317 307 301 323 343 344 345 346 347 348 350 351 351 353 352 354 356 359 362 363 364 364 364 364 363 364 363 364 364 365 364 364 363 363 364 363 364 363 363 363 363 363 363 362 362 362 362 362 361 361 362 362 363 363 363 363 364 363 364 363 363 363 362 362 360
351 349 348 348 342 338 328 334 316 314 312 310 310 318 317 324 323 319 319 320 322 327 330 327 330 333 333 329 329 328 324 329 331 328 333 340 344 345 347 348 348 349 352 354 353 352 352 358 358 363 363 363 363 364 363 364 364 364 364 364 364 364 363 363 363 363 364 363 363 362 363 363 363 363 363 362 362 362 362 361 361 362 362 362 362 362 362 364 364 363 362 363 363 363 363 362 362
349 347 345 344 342 338 335 333 312 311 306 306 311 316 324 319 318 321 323 324 329 330 332 331 332 332 330 328 323 324 316 334 333 334 334 342 337 341 348 349 351 352 354 355 355 355 356 359 363 362 363 363 363 363 363 363 364 364 364 363 362 362 362 362 364 363 362 363 363 362 362 361 362 362 362 362 361 361 362 361 362 362 362 362 363 363 363 363 364 363 362 363 363 363 362 362 362
349 347 341 340 330 338 325 323 316 311 308 308 309 318 321 320 319 323 326 329 330 332 329 326 324 330 329 322 324 329 327 329 334 334 333 337 336 346 350 352 354 355 356 355 354 355 356 360 362 362 359 361 362 362 362 362 363 362 362 362 362 362 362 361 362 362 362 360 360 361 363 362 361 361 361 361 362 360 360 360 362 361 361 361 363 362 363 363 363 362 362 362 362 363 363 362 361
346 347 345 340 332 324 324 319 318 317 309 312 309 318 322 325 322 323 327 330 331 330 328 328 325 332 333 328 331 321 323 334 334 338 337 343 348 349 351 353 354 354 354 354 354 355 357 362 362 361 363 362 362 362 361 362 362 362 362 362 362 362 362 362 362 362 360 359 360 361 363 362 362 361 361 360 361 360 360 360 361 361 361 361 362 362 361 363 363 364 363 362 363 363 362 361 361
343 343 350 344 330 337 330 317 315 313 318 321 315 317 323 326 324 326 330 331 332 332 331 328 325 326 328 330 333 328 333 324 335 337 340 342 348 352 353 354 353 353 353 353 353 354 356 362 362 363 363 363 362 362 362 361 362 363 363 362 362 361 361 362 362 361 360 360 361 361 362 361 360 360 360 361 360 360 359 358 360 361 360 361 363 362 362 362 363 363 362 362 363 363 363 362 361
338 340 343 342 336 335 318 316 314 315 321 326 320 322 325 327 328 327 326 327 330 330 333 329 331 329 325 332 335 338 342 341 337 338 344 346 350 352 354 353 352 351 352 352 353 355 357 362 363 363 363 363 362 362 362 363 363 362 362 362 361 362 361 361 362 362 361 361 361 361 361 360 359 360 360 361 359 360 360 360 360 359 360 361 362 361 361 363 363 362 361 360 361 361 361 361 361
354 339 335 327 322 325 317 318 316 317 321 328 327 326 327 329 331 326 325 324 323 324 328 330 330 328 325 335 325 341 345 346 344 347 348 350 351 352 353 352 350 350 352 351 353 357 363 363 363 363 364 361 361 361 362 362 361 361 361 361 361 361 361 361 361 361 362 361 361 361 359 359 359 361 361 361 360 360 361 360 360 360 361 361 362 362 361 362 362 361 360 361 361 361 361 361 361
349 342 339 328 319 323 319 317 319 327 324 327 326 332 334 331 332 326 324 326 326 327 326 328 328 323 326 330 330 338 342 346 347 349 350 351 351 352 352 351 350 349 350 352 354 357 360 364 362 362 363 362 362 361 361 361 361 361 360 360 359 359 360 361 361 360 362 361 360 360 360 360 360 361 360 361 360 360 360 360 360 360 361 361 360 360 361 361 361 359 360 360 361 361 361 360 360
339 339 325 323 324 315 317 317 316 320 322 329 328 329 330 333 330 329 324 324 325 326 327 333 332 325 330 326 330 336 339 346 347 348 350 351 351 351 351 351 351 350 350 352 355 358 359 362 361 362 363 362 360 361 361 360 361 361 361 361 360 360 360 361 361 361 361 359 360 361 359 359 360 359 359 360 360 361 358 360 360 360 361 361 361 360 360 360 360 360 360 360 361 360 360 359 359
329 338 336 321 316 314 313 314 318 323 323 329 329 334 333 333 330 327 326 325 328 326 329 332 327 327 329 329 332 344 346 346 345 344 349 350 350 350 350 351 351 351 351 354 357 358 358 359 362 362 363 361 361 361 361 360 361 361 361 359 360 361 361 361 361 361 361 360 360 358 360 361 359 359 358 359 359 358 359 360 360 360 361 360 360 359 360 360 360 360 360 362 362 361 359 359 359
326 328 329 316 314 315 317 316 319 321 327 328 324 332 333 332 332 325 325 324 326 327 327 330 325 331 326 327 330 340 344 344 345 347 349 350 349 351 351 351 352 352 354 356 358 356 356 358 360 362 363 361 360 360 360 360 359 360 358 357 360 360 361 360 360 360 361 361 360 360 359 361 360 359 358 359 359 358 359 359 358 359 359 360 360 361 360 361 361 361 360 360 361 360 359 359 359
329 331 322 317 317 319 321 319 319 322 321 325 325 333 337 332 327 326 326 326 326 324 325 331 333 330 322 327 337 340 340 344 347 348 348 349 350 351 352 352 353 355 356 357 356 355 355 356 359 359 360 361 359 359 359 358 356 356 356 358 360 361 361 361 361 361 362 362 360 360 360 360 359 358 357 357 354 354 357 357 358 359 361 361 360 360 360 360 360 359 359 360 360 359 359 360 360
331 331 326 316 325 321 319 319 321 318 318 326 329 334 334 331 330 329 328 324 324 324 331 335 333 332 328 331 332 334 339 346 347 348 350 351 351 351 352 353 354 355 356 355 354 355 355 357 358 355 354 355 357 357 356 355 355 351 353 358 360 360 360 361 361 361 360 362 361 359 359 360 360 357 356 355 356 354 354 356 358 359 360 359 359 360 360 360 359 359 359 362 361 360 359 360 360
333 336 326 321 319 321 322 316 318 317 318 327 331 331 333 335 334 330 327 324 325 333 335 338 335 328 321 326 326 332 340 345 347 349 350 351 352 352 352 354 354 354 355 355 355 355 355 355 356 354 354 354 353 353 352 354 354 353 359 360 360 361 360 361 361 361 360 360 358 359 359 359 359 360 359 358 357 355 356 355 356 359 358 355 357 359 359 361 360 360 361 362 361 360 360 360 359
340 335 326 319 317 318 319 320 324 317 319 329 333 335 331 334 337 329 331 331 329 334 334 327 335 328 329 329 331 338 343 346 348 350 350 350 350 351 352 352 353 354 354 355 354 354 355 354 354 354 354 353 352 354 351 351 353 357 360 361 361 361 362 362 362 362 360 360 359 360 360 358 357 358 358 358 357 356 357 357 355 357 356 358 359 359 361 361 360 359 361 362 362 362 360 359 360
340 336 320 318 316 319 321 321 321 314 325 331 334 333 326 327 335 338 344 335 328 329 330 332 330 335 331 332 339 343 345 348 350 349 348 347 347 347 349 350 351 352 353 354 353 353 354 353 353 354 355 355 354 354 351 351 359 362 361 361 361 361 361 361 361 361 362 360 359 360 360 356 355 352 353 357 358 355 356 357 358 357 358 359 359 360 361 360 359 361 361 359 360 360 359 359 361
334 324 320 316 321 320 326 324 325 329 325 329 330 332 327 324 330 334 334 330 330 329 329 332 336 336 339 341 344 345 346 346 347 346 344 344 345 344 345 347 348 347 350 352 353 353 353 353 353 354 354 355 356 354 356 357 358 359 356 356 359 359 359 358 358 357 359 356 360 356 356 357 353 351 356 357 355 354 357 357 359 359 359 360 360 360 359 360 360 359 360 360 361 361 363 357 360
329 325 321 315 321 326 333 330 329 328 327 330 331 334 330 327 330 332 326 325 326 326 328 331 332 336 339 342 343 343 345 345 345 344 342 342 342 342 343 344 345 347 348 351 352 352 352 353 354 354 354 355 355 355 357 358 355 355 355 356 358 359 358 356 353 354 352 352 353 353 354 353 354 355 355 355 352 355 357 356 358 358 359 359 360 361 359 359 359 360 361 361 361 363 356 356 356
334 327 319 321 328 330 332 333 330 334 332 329 330 333 331 330 333 336 325 324 326 324 325 328 330 331 335 339 341 342 343 343 344 342 342 342 342 342 342 343 344 346 347 350 351 353 352 353 353 354 354 354 353 354 354 354 354 354 354 355 354 354 353 353 351 351 351 351 351 352 352 354 352 354 357 356 356 353 356 358 358 360 357 359 361 360 361 360 360 360 360 363 361 360 356 356 354
333 327 321 325 330 328 332 335 335 335 334 332 331 333 329 332 336 331 326 322 322 325 329 328 329 332 335 338 340 341 341 341 342 342 341 341 341 342 343 344 345 346 349 351 352 352 352 352 353 353 354 354 354 355 353 352 353 354 354 354 353 352 352 351 350 350 350 350 351 352 352 352 351 352 351 349 350 354 355 352 352 354 357 358 361 356 356 358 358 355 355 357 356 358 357 356 356
332 327 330 331 333 328 334 336 338 336 336 332 330 327 327 335 336 328 326 320 320 326 330 332 334 335 336 337 339 341 340 340 340 340 340 340 340 341 343 344 346 348 350 349 350 351 352 353 353 353 354 353 353 352 353 357 354 353 353 354 352 351 352 352 351 349 349 350 351 352 352 350 350 350 351 351 352 353 353 353 353 355 355 355 358 354 354 355 354 354 354 355 355 357 356 356 359
322 328 330 333 334 330 335 336 337 336 333 330 329 332 335 332 329 329 327 323 327 333 334 335 336 338 339 340 340 339 339 339 340 340 340 340 340 341 343 344 345 346 348 348 350 351 352 352 352 353 352 352 352 353 354 353 352 353 354 354 352 351 352 352 352 350 349 349 351 352 349 349 348 349 349 350 350 351 351 351 352 354 353 353 355 354 354 355 354 354 354 354 355 357 357 357 356
330 325 329 332 334 333 336 336 338 337 334 331 335 338 331 328 323 331 327 331 331 334 336 337 338 339 340 339 340 339 339 339 339 340 341 340 341 342 343 343 345 348 348 349 350 351 353 352 352 352 352 352 351 353 353 352 353 354 355 356 354 355 354 353 353 351 350 350 351 351 351 348 348 347 347 349 348 349 350 350 351 352 352 352 356 356 354 354 354 354 355 355 356 356 356 357 357
328 326 331 332 333 336 337 337 337 335 332 336 336 332 330 330 328 330 327 331 333 334 336 337 337 338 339 339 339 339 338 339 339 340 341 341 341 343 344 345 346 347 347 349 350 350 352 353 353 352 353 352 352 353 352 352 353 354 356 354 353 358 352 354 354 351 349 351 351 352 352 348 348 347 348 348 348 348 348 349 349 350 351 352 355 353 355 354 354 354 355 356 355 355 355 355 360
331 326 328 329 333 335 337 337 337 336 335 336 331 329 332 333 336 331 333 331 334 336 335 335 336 337 337 338 339 338 338 338 340 339 340 341 342 342 343 345 346 346 348 349 350 350 352 354 352 352 353 352 353 353 352 352 353 354 355 353 354 356 353 354 355 353 350 349 349 351 352 349 349 348 347 347 347 347 348 348 349 350 351 353 355 354 356 354 355 355 355 355 355 355 355 356 359
334 329 330 331 333 334 337 334 335 336 334 335 328 328 330 335 332 321 333 333 335 334 333 335 335 335 336 337 338 338 338 338 339 341 341 341 341 341 343 345 346 347 349 349 350 351 354 353 352 353 353 355 353 352 352 352 353 353 354 353 354 353 355 356 356 354 351 350 350 352 353 354 350 348 347 347 347 347 348 348 349 350 352 353 355 355 356 358 355 355 356 356 356 356 357 357 358
331 330 331 331 332 334 336 335 334 334 330 335 331 327 332 335 332 325 328 334 335 332 332 333 333 334 335 336 336 338 338 340 341 341 340 339 340 341 343 344 345 347 348 349 350 352 354 353 353 353 353 355 354 353 355 353 353 353 354 353 352 353 355 355 355 354 353 351 351 351 352 354 353 348 348 347 347 347 347 348 348 352 353 354 356 356 357 357 357 358 359 360 359 358 358 356 358
331 331 324 326 330 328 332 331 333 336 330 335 332 326 324 326 327 333 331 334 333 332 332 332 333 333 334 336 336 337 338 339 341 341 341 342 342 344 343 346 346 347 349 350 351 353 353 353 353 354 354 355 353 353 353 354 353 354 353 352 352 354 354 353 353 353 353 352 351 352 353 355 355 349 349 353 352 347 349 349 350 355 353 354 356 360 359 356 357 356 357 357 358 353 353 354 357
332 331 328 324 326 324 328 335 335 333 333 334 333 312 317 322 330 336 333 332 332 331 331 332 332 333 334 335 336 337 338 339 340 341 342 342 343 344 344 346 348 348 348 350 353 352 354 355 355 355 354 354 353 354 355 354 353 353 353 352 354 353 353 352 352 353 354 353 352 353 354 356 353 350 350 350 348 349 350 349 350 351 352 356 358 360 356 356 356 354 356 354 357 353 352 353 354
325 328 327 319 318 316 325 328 333 327 335 335 335 312 316 324 329 334 332 333 331 329 330 331 332 333 334 335 335 336 337 339 340 341 343 343 344 345 345 347 348 348 349 349 351 353 354 354 355 354 356 354 356 355 355 354 353 353 352 351 352 352 352 351 352 352 353 352 353 353 354 356 354 353 352 350 350 349 349 350 350 351 353 358 357 358 355 356 355 354 356 352 350 350 351 355 353
326 318 312 319 316 319 324 329 331 325 330 336 331 313 317 324 328 332 332 332 331 329 330 331 331 332 333 334 335 336 337 339 341 342 343 344 344 344 346 347 348 349 348 349 352 353 353 354 356 354 356 354 355 356 354 354 354 352 351 353 351 352 352 351 352 352 352 352 353 352 354 355 356 356 353 352 350 349 349 351 352 353 357 358 355 358 359 356 355 353 355 352 350 349 352 350 352
321 317 314 314 318 318 320 326 330 332 331 332 328 315 320 322 330 333 332 332 331 329 329 330 330 331 333 333 334 335 336 337 339 341 342 343 344 345 346 347 348 349 349 350 351 352 352 353 355 353 354 354 355 356 353 353 352 350 350 352 350 351 351 351 352 352 352 352 352 351 353 355 357 356 356 353 351 349 350 352 353 355 359 356 356 356 356 358 356 354 352 355 352 351 350 350 351
314 315 314 317 315 318 316 323 327 331 330 324 329 320 322 325 329 333 331 331 329 328 328 329 330 331 332 333 333 334 334 335 336 339 340 342 343 344 346 350 349 350 350 351 352 352 351 352 353 353 354 354 355 354 352 351 350 349 350 350 352 350 350 351 352 353 352 352 352 352 353 355 358 357 358 355 352 352 351 354 355 357 360 357 356 355 356 355 354 354 353 354 357 355 354 353 353
311 310 311 313 319 319 318 317 324 328 330 325 325 323 324 325 329 331 329 331 329 328 328 328 329 330 331 331 332 332 332 333 336 338 340 342 343 344 346 348 348 349 350 351 352 352 352 352 353 355 353 353 354 352 351 349 349 349 349 350 350 349 350 351 351 352 353 352 352 354 355 357 360 358 359 357 354 355 356 355 357 360 359 356 355 353 355 361 358 355 355 355 356 357 357 356 357
315 315 314 316 314 316 318 323 328 328 323 323 322 319 322 323 327 329 330 329 326 327 328 327 329 329 330 330 330 330 330 331 336 338 340 342 343 343 344 347 348 349 350 351 352 351 351 352 352 354 352 353 352 350 349 347 348 348 346 348 347 349 348 350 350 350 354 353 354 356 358 358 361 360 359 358 356 359 355 356 359 359 359 356 354 353 351 353 354 354 355 359 358 357 357 360 357
317 318 316 314 317 319 325 325 328 330 324 321 323 324 323 322 325 327 332 332 325 325 324 325 326 327 328 328 328 329 329 330 334 337 340 341 342 343 344 346 347 348 350 351 351 350 351 352 352 351 350 351 350 347 346 346 345 345 346 345 344 347 347 349 350 350 353 355 357 359 360 361 361 360 360 358 357 362 357 357 358 358 357 356 356 354 352 354 358 359 358 359 359 353 353 354 355
316 315 315 314 317 316 323 323 327 329 322 319 324 323 323 323 326 329 332 330 325 323 323 324 325 327 327 327 327 328 329 331 333 335 338 340 341 342 343 344 348 345 348 350 350 350 350 351 351 350 349 350 349 348 347 346 346 345 345 345 345 346 348 349 348 350 352 356 359 360 361 361 360 360 361 359 360 357 356 357 357 357 355 354 355 355 359 361 354 356 357 356 354 354 352 354 354
310 312 314 314 315 321 325 326 325 326 322 318 322 320 322 324 327 329 331 331 332 329 325 325 325 325 326 327 327 327 327 327 331 334 336 338 340 341 342 344 346 347 348 349 350 349 349 349 350 349 348 349 349 349 347 345 346 348 346 346 347 346 351 352 350 352 356 357 359 360 362 360 359 359 361 361 357 356 357 357 356 355 356 361 354 353 352 353 355 356 358 357 355 352 354 357 357
313 314 313 311 318 317 312 321 325 324 322 318 321 319 321 325 328 329 331 333 332 332 334 327 327 326 326 326 327 326 326 326 329 331 334 336 338 340 341 342 344 346 347 348 348 348 348 349 348 348 348 348 348 349 350 347 348 349 349 349 349 349 348 354 354 355 357 358 358 360 361 360 359 359 361 361 358 356 356 356 356 355 357 358 353 354 355 353 355 356 358 360 354 350 349 351 359
303 317 315 315 316 317 318 317 321 322 324 324 321 318 317 321 320 323 329 333 333 332 333 329 326 328 328 329 328 327 325 326 328 331 333 335 336 338 340 342 343 344 346 347 347 347 348 347 347 347 348 348 348 352 351 348 351 348 350 352 354 352 353 351 351 352 355 357 358 359 360 360 359 360 361 360 359 356 356 356 356 356 356 356 356 355 355 355 356 358 357 358 354 352 350 349 351
296 311 316 317 320 319 320 320 317 316 314 321 318 307 308 318 320 321 325 328 327 332 329 326 324 325 326 325 325 326 327 328 329 330 332 334 336 338 340 341 342 343 344 346 347 348 348 347 347 347 347 348 347 350 349 349 350 346 346 345 344 345 345 346 345 347 352 355 356 359 360 360 359 360 361 360 360 358 356 356 356 356 356 358 357 356 356 358 357 359 359 358 356 353 354 351 351
292 294 314 319 320 321 320 318 317 310 308 316 323 307 305 316 317 320 323 324 325 329 329 326 324 324 323 324 324 324 325 326 329 331 332 334 336 337 338 340 341 342 344 346 347 347 347 347 347 347 347 347 348 349 349 351 347 346 346 345 345 345 344 346 349 351 353 355 358 358 359 360 360 359 361 360 360 360 357 357 357 357 358 357 362 358 358 359 359 360 361 359 358 359 356 353 348
291 295 315 320 320 319 318 318 315 311 320 320 320 317 306 307 315 322 324 323 324 325 326 327 323 324 323 323 324 323 325 327 328 329 332 334 336 337 337 339 341 342 344 345 345 346 346 346 346 346 347 349 349 349 348 350 347 346 346 347 348 346 347 347 349 352 355 358 356 357 358 359 359 360 360 359 360 361 358 357 358 358 358 358 363 362 360 359 360 360 362 360 357 360 357 354 349
293 301 319 319 321 321 319 317 312 314 314 308 314 318 305 306 315 323 323 319 320 322 324 326 325 324 324 323 323 323 325 327 328 329 331 333 335 337 338 339 341 343 343 344 345 345 346 347 347 347 347 348 349 350 349 350 350 347 347 347 348 349 349 350 354 357 355 359 355 355 357 358 358 359 360 360 359 360 363 359 358 358 358 359 364 363 361 360 360 359 358 358 357 358 356 352 352
301 320 321 320 317 316 314 311 312 310 305 304 311 316 303 303 314 316 321 319 318 320 324 326 328 327 325 323 322 323 324 326 328 330 332 334 336 337 338 340 341 342 343 345 345 345 346 346 347 346 346 347 348 350 349 349 350 351 347 348 348 348 351 352 353 353 353 355 354 354 355 356 357 357 358 360 359 360 362 361 358 358 359 359 363 363 361 361 360 359 359 358 356 353 356 356 359
313 319 315 312 311 310 311 309 307 304 299 303 313 316 308 299 310 314 314 316 321 323 325 328 331 330 329 330 329 325 323 324 326 329 331 334 336 337 338 338 340 341 342 344 343 344 346 346 346 345 346 347 348 349 348 348 350 349 348 348 348 347 349 350 350 350 351 352 352 352 354 355 356 356 357 359 359 360 361 362 360 358 359 363 365 363 362 361 361 360 359 359 359 354 353 354 361
317 311 311 311 307 308 305 303 305 297 294 299 313 314 309 299 304 315 321 327 326 326 324 326 329 329 331 334 335 334 325 322 325 328 330 333 334 335 336 337 339 340 341 342 343 344 345 346 346 345 345 346 346 348 348 348 349 349 349 349 348 349 349 350 350 350 351 352 352 352 353 354 354 356 356 357 358 360 361 361 362 361 361 360 361 362 363 362 361 360 360 359 359 358 357 359 354
313 313 312 304 295 300 296 298 295 294 294 301 314 314 307 305 305 316 320 326 327 329 328 328 330 330 332 333 335 335 335 324 324 327 330 331 332 333 334 336 338 338 339 341 342 343 345 345 346 345 345 346 346 346 347 348 349 349 349 349 349 349 350 351 351 351 351 352 352 352 351 352 352 354 355 355 357 359 361 360 360 360 360 361 361 360 361 361 360 359 359 358 358 358 357 357 357
312 309 303 299 293 292 290 292 295 294 299 305 313 314 305 306 310 319 320 325 330 331 332 332 333 331 332 334 335 337 337 332 324 327 329 331 332 333 335 336 337 337 339 341 342 343 344 345 345 345 345 346 346 346 347 347 348 350 350 349 349 351 349 350 351 351 352 353 353 352 352 352 352 354 354 356 357 359 361 361 362 361 361 361 362 360 360 360 361 360 359 358 357 359 358 359 359
311 311 307 303 300 296 290 291 290 293 294 306 314 307 299 302 307 320 322 325 330 331 333 334 334 334 335 336 336 337 337 335 327 326 328 330 332 333 334 336 337 338 338 340 342 343 344 344 344 345 344 345 346 345 346 347 348 349 350 351 350 351 350 350 351 352 352 352 352 353 353 353 353 354 355 357 359 360 360 361 361 360 361 360 361 362 362 362 364 363 363 359 360 358 358 358 357
310 309 309 304 301 302 297 296 296 298 300 302 306 303 308 308 319 324 326 329 330 332 332 333 333 334 336 336 335 335 336 338 333 326 327 329 332 333 335 336 337 338 338 340 342 343 343 344 344 345 345 345 345 346 346 346 348 349 350 351 350 352 354 352 352 354 353 353 353 353 353 353 354 355 356 358 358 360 360 360 361 361 361 361 361 361 362 363 363 364 362 361 359 360 358 358 358
302 307 302 304 307 304 298 304 305 305 300 297 304 304 308 314 318 325 329 328 327 328 330 332 331 333 333 333 335 336 337 338 338 329 327 329 331 332 334 335 337 338 338 339 342 343 343 344 344 344 344 346 346 347 346 347 347 348 349 351 351 352 353 350 351 352 352 353 354 354 354 354 354 355 355 358 358 359 360 360 360 360 361 361 361 361 361 362 363 364 363 361 360 360 363 359 358
304 301 306 303 305 303 298 293 292 292 292 295 302 301 303 306 304 322 324 324 326 327 328 330 331 332 331 332 334 336 336 338 341 340 336 332 332 333 334 336 337 338 338 339 342 343 344 345 345 344 344 344 345 346 346 347 347 348 348 349 351 352 353 352 352 352 353 353 354 354 354 353 353 355 356 357 358 358 359 363 360 360 360 360 361 361 361 362 363 363 362 362 363 360 361 362 361
310 308 310 302 295 297 295 298 289 290 291 294 299 303 303 305 306 316 318 321 323 326 328 328 328 329 330 332 334 337 338 339 340 339 338 336 333 333 334 335 337 339 341 340 341 344 344 345 346 345 344 345 346 347 347 348 348 348 349 349 350 351 353 353 352 353 354 353 353 354 354 354 354 356 358 358 358 357 358 359 360 359 359 360 360 360 362 362 363 362 362 362 362 362 361 360 361
300 304 299 300 297 293 294 297 296 298 294 295 296 300 297 307 309 317 317 322 324 326 326 327 328 330 331 332 334 336 337 338 340 340 340 340 339 335 335 335 336 338 339 340 341 344 344 344 347 346 347 347 347 347 349 348 348 349 349 350 350 351 353 353 353 353 353 353 354 355 355 353 354 357 357 357 357 357 357 357 357 358 358 359 360 360 361 362 362 362 362 361 361 361 361 361 361
295 298 295 297 295 298 298 295 298 297 294 293 291 291 298 305 314 318 320 322 325 327 326 328 329 331 333 335 336 336 337 338 340 341 340 342 344 345 343 341 340 341 341 341 341 343 344 345 345 347 345 346 347 347 348 348 349 349 350 349 350 350 350 353 353 353 353 353 354 356 355 356 356 356 357 357 356 357 357 357 357 358 358 359 360 360 361 361 361 361 361 361 360 360 359 359 360
298 296 295 293 292 293 293 290 296 301 296 291 292 291 301 311 320 321 322 324 326 328 328 327 330 332 332 332 332 334 336 340 342 344 344 344 344 345 347 348 347 345 345 341 341 343 345 345 346 348 347 347 348 348 348 349 350 350 349 350 350 351 351 352 353 352 353 353 353 355 356 357 355 356 357 356 357 357 358 357 357 357 358 359 360 360 360 360 360 360 359 359 360 360 359 359 358
Wind_Speed
5 5 4 3 2 2 0 1 0 1 0 1 1 0 1 0 1 2 3 6 6 2 1 6 8 5 2 3 4 3 1 7 3 6 4 0 3 6 4 7 8 7 7 4 3 2 3 4 5 6 8 9 10 10 10 10 10 10 9 10 10 10 11 11 11 11 11 11 11 11 11 11 11 12 12 12 12 12 12 14 12 11 9 12 13 13 14 14 14 14 14 15 16 18 17 17 17
4 5 4 2 1 0 1 0 1 1 3 2 0 0 1 0 2 3 8 5 1 4 3 7 6 7 6 9 8 7 6 5 2 2 3 4 7 3 3 7 9 10 7 5 3 2 3 4 6 7 8 9 10 9 10 10 9 9 9 9 9 10 10 10 10 10 10 10 10 10 10 10 10 11 11 12 12 12 12 14 13 11 9 10 12 13 14 14 14 14 14 16 16 16 16 15 14
5 5 4 1 1 1 1 0 0 0 3 1 2 1 2 1 1 2 3 1 5 8 7 8 7 3 2 3 3 2 1 5 6 4 5 7 9 4 5 6 8 9 8 5 4 2 2 2 4 8 9 9 9 9 9 9 9 9 9 9 9 9 9 10 10 10 10 9 10 10 10 10 10 10 11 11 11 11 11 14 13 12 11 10 11 13 13 13 13 13 14 16 16 15 15 14 14
5 2 4 1 1 0 1 0 0 2 2 2 1 0 0 1 2 4 2 2 8 10 7 8 5 2 1 5 2 4 5 4 2 9 8 7 1 8 8 8 8 8 7 5 3 3 3 4 7 7 9 10 9 9 9 9 9 9 9 9 9 9 9 9 10 10 10 9 10 9 11 10 10 10 10 8 10 11 11 13 12 12 13 10 10 12 13 13 13 13 14 14 15 15 14 13 13
4 2 1 2 0 1 1 1 0 0 2 2 3 0 0 1 5 4 2 3 6 8 6 4 4 3 3 4 1 1 2 7 7 3 6 3 6 10 10 10 9 9 7 5 4 4 3 6 8 8 9 9 9 10 10 7 9 9 9 9 9 8 8 8 9 10 9 10 8 9 10 10 10 10 12 10 9 10 11 13 12 12 11 12 8 11 13 13 13 14 14 14 14 14 13 12 12
3 2 1 1 1 0 1 1 0 1 1 0 3 2 1 2 4 3 3 4 4 3 4 4 3 4 4 4 2 3 7 4 6 4 6 7 11 12 11 10 9 9 7 5 4 3 3 7 7 9 9 8 9 10 9 9 10 9 9 9 9 9 9 10 9 10 10 10 10 8 9 9 9 10 10 12 13 11 11 11 11 11 12 11 10 11 14 13 13 12 13 14 12 12 11 10 11
3 1 0 0 1 1 0 1 0 1 1 2 1 3 3 1 2 7 8 6 2 5 3 3 10 7 6 2 3 4 1 6 5 5 5 12 12 12 10 9 9 10 7 5 4 4 3 7 7 9 10 9 9 9 9 9 9 9 9 10 9 10 10 8 9 10 10 10 10 10 9 9 9 10 9 11 12 11 11 13 12 11 12 12 12 14 14 13 12 11 12 13 12 12 11 11 11
1 1 2 1 1 1 1 1 0 1 1 2 0 2 1 2 2 5 8 5 4 3 5 6 3 7 3 2 3 4 6 4 8 10 11 12 12 12 10 10 10 10 7 4 4 3 7 7 7 10 9 9 9 10 9 9 9 9 10 9 9 9 10 9 10 10 10 10 9 9 9 9 8 10 11 11 12 10 11 11 11 11 12 13 14 15 15 13 11 11 11 12 11 11 10 11 11
2 2 1 1 1 1 0 1 1 1 1 1 1 1 3 1 2 5 6 2 4 5 7 6 3 6 2 7 4 5 6 10 11 13 12 11 11 11 8 10 11 8 7 5 4 2 3 6 8 9 9 9 9 9 9 10 9 9 10 9 9 7 10 11 10 9 10 9 8 8 9 9 8 8 11 12 12 11 10 11 11 11 11 13 14 16 15 13 12 12 9 10 11 10 10 11 12
2 1 0 2 1 1 1 1 2 1 1 0 1 1 0 1 2 3 8 6 3 8 4 5 4 7 7 8 5 4 5 12 13 11 10 10 11 10 10 9 9 10 8 6 4 3 2 8 9 9 10 9 9 10 11 9 8 10 9 8 9 9 10 10 10 11 9 8 8 8 10 9 9 8 9 12 12 12 12 11 11 11 11 12 13 15 16 14 13 13 11 10 10 10 10 11 12
1 0 1 1 1 1 2 1 1 1 1 1 2 2 1 0 2 4 4 6 4 4 6 9 8 10 5 5 4 4 8 11 12 12 10 10 10 10 9 8 8 9 9 7 5 3 2 4 8 9 9 10 9 10 10 10 9 9 8 6 9 8 10 10 10 10 11 10 10 9 7 8 9 11 11 10 12 12 12 11 11 11 10 12 12 14 14 13 12 12 11 11 11 10 11 12 12
1 1 1 1 0 1 2 3 4 3 2 1 1 2 1 1 1 5 8 9 3 5 4 3 6 8 7 5 3 7 9 9 9 9 9 9 8 9 9 7 8 8 9 8 6 3 3 4 3 8 11 11 10 10 9 9 6 8 8 6 10 10 11 10 10 10 11 10 9 8 9 8 9 11 11 14 13 10 11 11 11 11 11 14 13 12 11 12 11 11 11 12 12 12 11 12 12
0 1 2 2 2 2 3 3 4 5 3 0 2 0 1 3 2 7 5 6 6 8 3 1 13 1 5 5 4 8 9 9 9 9 9 7 8 8 9 8 8 8 8 7 6 5 5 4 5 6 8 11 10 10 10 8 7 5 4 6 8 10 10 11 10 11 12 10 10 10 8 8 9 10 12 13 16 8 8 10 9 9 11 12 13 14 12 11 11 12 12 13 12 11 13 12 11
2 1 2 1 1 3 3 3 3 6 2 1 1 1 2 2 1 5 9 7 5 2 1 11 3 5 9 8 6 7 7 9 10 9 8 9 8 8 10 8 8 8 7 6 6 6 5 5 6 7 6 4 5 7 8 7 6 5 7 8 10 10 10 10 10 11 11 11 10 9 10 10 10 10 12 13 17 13 7 6 9 8 12 10 13 14 12 12 12 12 13 13 13 12 12 11 11
2 1 1 2 1 2 0 4 7 6 5 3 1 2 2 2 2 6 8 9 2 4 7 5 5 3 5 8 9 8 9 11 10 9 10 9 9 9 10 8 8 7 6 7 6 6 5 6 7 6 5 5 6 4 2 3 6 12 7 8 10 10 10 9 10 10 11 9 11 10 11 12 11 13 14 15 14 13 8 7 8 11 11 15 15 13 13 12 11 13 14 13 13 12 11 11 11
1 2 0 1 2 2 2 2 2 5 2 3 3 2 6 2 2 8 3 2 3 5 5 4 1 1 7 1 7 10 13 12 10 11 11 11 9 9 9 8 7 6 5 6 6 5 5 6 6 6 6 6 4 3 4 4 8 7 7 9 10 10 10 9 8 9 9 11 14 12 12 10 10 9 12 11 13 12 9 8 10 11 15 16 15 13 13 13 11 12 13 12 12 11 11 11 11
2 0 1 2 1 2 3 2 7 8 4 3 2 4 4 3 1 2 1 6 10 6 2 3 1 3 8 3 11 14 13 11 11 12 11 9 7 7 7 7 6 5 5 6 5 5 6 6 6 5 6 6 5 6 4 6 3 7 6 10 11 10 10 11 11 10 12 10 10 13 11 8 8 8 6 5 10 6 6 8 9 7 9 14 14 14 13 12 12 13 11 12 12 11 10 11 11
2 1 1 1 0 2 2 2 2 2 8 6 5 3 8 6 2 3 9 6 4 4 9 7 10 9 10 12 13 13 12 13 12 12 10 9 7 8 8 7 6 7 6 5 4 5 6 5 6 5 5 5 5 4 2 3 4 7 7 6 6 7 9 9 8 8 9 6 10 8 6 6 7 4 4 9 7 5 4 5 6 7 10 13 13 13 12 12 12 12 12 12 12 10 11 6 5
3 0 1 2 1 1 4 2 2 2 4 7 5 1 3 4 7 3 7 4 5 8 7 10 11 11 12 13 13 12 12 12 11 10 12 12 9 11 9 8 7 7 7 6 5 5 5 5 5 5 5 5 5 4 3 4 5 6 7 6 5 8 7 8 6 7 6 6 6 6 6 5 6 5 6 8 6 6 6 8 7 9 9 12 13 12 11 12 12 13 12 10 10 10 6 4 4
2 1 1 3 1 0 3 1 1 2 8 8 6 2 4 4 2 2 6 7 6 9 10 8 11 14 14 13 12 12 12 11 10 10 11 11 9 9 10 10 9 7 7 6 6 4 5 5 6 5 5 5 4 4 4 4 5 6 5 5 5 5 6 6 6 6 6 6 5 5 5 6 6 5 9 12 9 3 5 10 11 11 11 11 13 8 10 10 13 13 10 8 6 3 4 4 3
1 2 2 2 3 3 2 3 2 5 8 7 5 3 5 0 2 3 11 11 4 5 11 14 13 16 15 14 13 12 11 11 9 8 9 8 7 5 6 7 7 7 6 6 5 5 5 6 6 5 5 4 5 4 5 5 5 6 5 5 5 5 5 5 5 5 5 6 6 5 5 6 5 5 5 5 2 3 5 5 5 4 4 6 8 6 4 5 6 4 4 5 4 4 4 4 4
1 2 2 1 2 2 3 4 2 5 6 7 6 7 4 2 3 6 11 10 8 10 10 11 16 17 19 15 13 11 11 10 10 8 8 9 9 8 7 5 5 5 6 6 7 6 5 5 6 5 5 5 4 4 4 5 5 5 5 4 5 5 6 5 5 5 5 6 5 5 5 5 5 5 5 4 4 4 5 4 5 3 5 5 5 4 4 4 4 4 4 4 3 3 3 3 2
2 2 1 2 1 4 4 4 5 6 6 7 7 2 2 2 4 4 3 1 2 4 9 12 13 14 15 13 12 12 11 10 10 9 8 8 8 7 7 6 7 7 5 5 5 5 5 5 5 5 5 5 5 5 4 5 4 4 4 4 5 4 4 5 5 4 5 5 5 5 4 4 4 4 5 5 5 5 5 5 5 5 5 5 4 4 4 4 3 3 3 3 3 3 3 2 2
3 3 1 4 3 4 5 7 6 6 6 4 4 4 5 4 8 1 3 1 5 7 11 12 13 12 13 13 11 12 11 10 9 8 7 7 8 8 8 8 6 5 5 6 6 5 5 5 5 5 5 5 5 5 5 4 4 4 4 5 4 4 5 4 4 4 4 5 5 5 4 4 4 4 4 5 4 5 5 4 4 5 4 4 3 3 4 3 3 2 3 3 3 3 2 2 1
3 1 3 4 2 5 7 7 8 10 10 4 4 6 2 4 3 3 3 5 9 10 12 13 13 12 11 11 10 10 9 8 8 7 6 3 5 6 5 5 6 6 7 7 6 5 5 5 6 6 5 5 5 5 5 4 4 4 4 4 3 4 4 4 4 4 4 4 5 4 3 4 4 4 4 3 4 5 4 4 5 4 4 4 3 3 3 3 3 3 3 3 2 2 2 2 1
6 6 4 3 3 5 5 9 8 10 6 6 7 6 3 3 2 3 2 7 11 12 12 13 13 13 11 11 10 10 9 9 8 8 7 6 6 7 6 6 6 7 6 7 7 5 5 5 6 5 5 5 5 5 4 4 3 4 4 3 3 4 4 4 5 4 4 4 3 3 4 3 3 3 3 3 5 5 4 4 4 4 4 3 4 4 3 3 3 2 2 2 3 2 2 2 2
9 8 5 6 7 6 4 8 8 6 5 5 8 4 3 2 3 2 3 10 13 12 13 12 13 13 11 9 9 8 9 9 9 7 6 6 6 6 6 6 7 6 7 6 6 5 5 6 6 5 5 6 5 5 4 4 3 3 3 3 4 5 5 4 4 3 3 3 3 3 3 3 3 3 4 4 4 4 4 4 4 3 4 3 3 3 3 2 1 1 0 2 3 3 3 2 2
9 10 9 7 4 3 8 9 8 6 4 4 11 6 3 2 2 1 8 12 15 14 12 12 11 11 11 10 9 7 7 6 6 8 9 8 7 6 7 6 7 7 7 7 5 6 6 7 6 5 5 5 5 5 5 4 4 4 3 3 4 5 5 4 4 3 3 3 3 3 2 3 3 3 4 4 4 4 3 3 3 3 3 3 3 2 2 2 0 0 1 1 2 2 2 1 1
11 12 8 7 6 6 6 8 4 3 4 5 10 10 2 2 0 1 10 12 14 14 13 12 11 10 10 9 8 6 6 6 6 6 7 6 5 5 7 6 7 7 5 6 7 7 7 7 6 6 5 5 5 5 4 4 3 3 3 3 3 4 4 4 4 3 3 3 3 3 2 2 2 3 3 4 3 3 3 3 2 2 2 2 2 1 1 1 1 1 2 2 2 2 3 4 2
9 3 6 8 5 3 5 3 5 7 4 7 4 5 5 3 1 2 9 13 13 13 12 11 9 9 8 8 8 7 5 6 7 6 5 6 6 5 6 6 6 6 6 5 7 7 6 5 5 4 5 5 6 5 5 4 4 3 3 3 4 4 4 4 4 3 3 3 3 2 2 1 2 2 3 3 3 3 3 2 1 1 2 2 1 1 1 0 2 2 3 3 4 4 5 4 4
5 5 2 3 6 2 4 4 6 9 2 3 4 4 6 3 1 4 9 13 16 13 12 11 9 8 8 7 7 7 6 6 7 6 6 7 6 5 5 5 6 6 5 6 8 8 7 6 6 5 6 5 6 5 5 5 4 4 3 2 3 4 4 4 4 4 3 3 2 2 2 2 2 2 2 3 3 2 2 1 1 1 3 2 2 0 1 2 2 2 2 4 4 4 4 3 3
4 5 0 1 2 3 6 4 4 9 3 2 1 2 7 5 1 8 9 12 14 14 12 11 9 8 8 7 7 7 6 7 6 7 7 7 7 6 7 6 7 7 7 7 7 8 8 7 7 6 7 7 6 5 5 5 4 3 3 4 2 3 4 4 4 4 4 2 2 2 2 2 2 2 2 2 2 1 0 0 1 1 1 1 1 1 1 2 2 2 3 4 5 4 4 5 3
0 2 3 4 1 4 2 6 3 4 7 2 2 3 7 2 2 7 9 11 12 12 12 10 10 10 9 8 7 6 6 6 6 7 7 7 7 6 7 7 7 7 7 7 7 7 7 8 8 7 8 8 7 6 6 5 4 3 3 3 3 3 3 4 4 4 4 3 2 2 1 1 1 1 2 2 2 2 1 1 1 2 1 1 2 2 1 1 2 3 3 3 2 3 3 4 4
2 2 2 2 5 7 4 3 6 2 7 5 2 4 2 6 7 7 10 11 10 11 12 11 10 8 8 8 8 7 7 7 8 8 8 8 7 8 7 7 7 7 7 8 7 8 8 8 7 7 7 7 6 6 6 6 4 3 3 2 3 3 3 3 4 4 4 3 2 2 2 2 2 2 2 2 2 1 1 1 2 1 2 2 2 2 1 1 2 3 4 2 2 2 2 3 4
5 2 4 3 3 7 4 8 8 9 4 5 3 5 5 10 7 8 11 10 10 11 11 11 10 9 9 8 8 8 8 8 9 8 8 8 8 7 7 7 7 7 6 8 7 6 6 6 5 6 7 7 6 6 6 6 5 4 3 2 2 2 3 3 3 3 3 3 3 3 3 3 3 2 2 2 2 1 1 2 1 2 2 3 3 3 2 2 3 3 4 3 2 1 1 2 2
8 8 6 2 4 5 4 1 7 9 6 6 6 8 7 10 7 7 9 11 11 11 9 8 9 9 9 8 8 8 8 9 9 8 8 8 7 8 7 7 7 7 6 7 7 7 6 6 5 5 6 6 6 6 6 6 5 6 5 3 1 3 2 4 4 3 4 3 3 4 4 3 3 2 3 2 2 2 2 2 2 2 2 3 3 3 2 3 4 4 4 3 4 4 2 1 1
5 4 4 6 3 3 4 4 8 5 5 2 4 5 8 12 9 7 5 7 9 9 10 8 9 9 9 8 9 9 9 10 8 9 9 10 9 8 7 7 8 7 7 7 8 7 7 7 7 7 6 7 7 7 6 7 6 5 4 5 4 4 4 3 3 3 3 3 5 4 4 3 3 3 3 3 4 3 3 2 3 2 2 2 2 2 2 2 3 3 1 2 3 5 3 2 2
6 5 4 4 2 2 1 4 7 4 3 4 2 7 7 12 7 5 1 6 10 11 10 11 10 10 9 10 9 9 10 6 5 6 7 8 7 7 7 7 7 9 7 8 9 9 8 8 8 6 6 6 7 7 7 6 5 5 5 5 3 5 4 4 3 3 3 3 4 4 4 4 4 4 4 4 4 4 4 3 3 3 2 2 2 2 2 3 3 2 2 3 2 3 3 2 3
4 6 6 5 2 4 4 9 9 2 4 3 8 6 7 9 6 6 3 3 2 2 10 11 12 11 9 9 9 9 7 6 7 9 8 9 9 9 7 7 8 10 10 11 9 8 8 8 7 7 6 7 6 6 6 6 4 4 3 4 5 4 2 3 3 3 3 3 4 4 4 5 5 4 4 4 5 4 4 4 3 2 2 2 3 2 2 3 2 2 2 2 2 1 1 2 2
4 4 6 8 7 7 3 6 11 3 0 5 9 7 5 6 3 4 3 2 0 0 1 7 11 13 12 12 11 11 10 8 9 9 10 9 9 8 7 7 8 7 6 6 8 9 7 7 7 7 7 7 6 6 6 5 5 5 4 5 5 5 4 4 3 4 4 4 4 4 4 4 5 4 4 4 4 5 5 5 3 3 3 2 2 2 1 2 2 1 1 1 2 4 4 3 2
1 7 5 5 9 3 4 5 5 4 2 6 8 5 4 8 9 5 2 1 0 2 1 3 8 11 13 10 10 10 11 10 10 10 10 10 9 10 11 9 8 8 8 9 9 9 7 9 8 8 7 7 7 7 6 5 6 5 5 5 5 5 5 5 5 4 4 4 3 4 5 5 5 4 4 4 4 5 4 4 4 4 3 2 2 2 2 1 1 1 1 1 3 2 3 2 2
1 4 6 9 9 9 11 13 10 3 2 6 12 6 5 11 12 13 6 2 2 1 1 6 9 8 6 8 10 8 8 10 11 11 11 11 12 10 7 8 9 8 9 9 9 9 8 7 8 7 6 6 7 6 6 6 6 6 6 6 6 4 5 6 6 7 6 6 6 5 4 5 5 4 4 4 4 4 4 4 4 4 3 2 2 2 2 2 1 0 1 0 2 1 1 2 3
2 5 7 6 10 11 14 14 9 7 5 9 3 3 1 7 12 10 7 6 6 2 2 6 9 8 7 10 9 8 10 9 9 10 10 11 10 10 9 10 10 10 9 8 8 8 8 8 8 8 8 7 6 6 7 6 6 5 6 7 6 6 6 4 4 4 5 4 4 6 5 5 5 5 4 4 4 4 4 3 4 3 3 2 2 2 2 1 1 1 0 0 1 1 1 2 3
3 3 9 9 11 14 14 14 6 2 5 5 4 0 3 3 8 8 9 8 8 8 6 5 9 9 10 9 10 9 10 10 10 11 12 13 12 13 13 12 11 12 9 9 9 8 10 9 9 9 7 7 6 6 7 6 7 6 5 5 5 5 6 6 5 4 4 4 4 5 4 4 4 4 4 4 4 4 4 3 3 3 3 3 2 2 1 1 1 0 1 0 1 1 2 1 2
3 2 11 12 11 11 10 7 3 4 6 4 7 2 3 1 2 7 9 9 10 12 9 8 9 11 11 10 10 10 11 11 12 11 12 13 13 13 12 11 11 8 9 10 11 10 9 9 9 8 8 7 7 8 7 6 6 6 6 5 4 3 3 3 3 3 4 4 5 4 4 4 4 3 3 4 4 4 4 4 4 4 3 3 2 2 1 1 1 1 1 0 1 1 1 1 1
1 11 11 11 11 9 8 5 4 1 2 5 9 7 2 2 4 9 10 9 12 13 11 9 9 10 10 10 9 9 8 9 11 14 14 14 14 13 14 12 9 10 10 8 7 7 8 8 8 9 8 7 7 8 7 7 6 6 5 5 6 4 3 3 4 4 4 4 5 4 3 4 3 3 3 3 4 4 4 4 3 4 4 3 2 2 2 1 1 2 2 2 2 2 1 2 1
6 13 12 9 8 5 4 6 3 4 1 6 9 9 2 2 7 11 14 14 11 9 6 3 5 4 6 6 8 9 9 9 10 11 13 14 14 13 10 11 12 7 6 8 8 8 8 9 9 9 9 8 8 9 8 8 7 7 6 7 7 6 5 5 4 4 4 4 4 4 4 4 3 4 3 3 3 3 3 3 3 3 3 3 2 3 3 2 2 2 2 2 3 3 2 2 2
10 3 6 9 6 4 7 4 5 3 3 4 10 11 3 3 2 7 8 5 10 10 9 9 10 9 9 7 7 8 9 9 9 9 10 10 7 7 8 9 8 8 7 8 8 8 8 9 9 10 8 8 8 8 8 7 7 7 7 7 7 7 7 6 7 6 6 6 5 5 4 3 3 3 3 3 3 3 3 3 3 3 3 3 3 2 2 2 2 2 2 2 3 3 2 2 3
7 8 7 9 1 2 1 3 2 2 4 1 7 10 1 5 2 1 10 5 11 12 12 12 11 10 9 8 6 5 5 8 10 10 8 8 10 11 10 9 7 7 10 10 10 10 9 9 10 11 10 8 9 9 9 8 7 7 7 7 6 6 7 7 7 7 6 6 5 4 4 5 3 3 3 4 3 4 3 3 3 3 3 3 3 3 3 3 3 3 3 3 3 4 3 3 2
10 10 7 8 4 2 2 1 1 4 6 1 8 6 2 1 1 0 2 7 13 13 10 10 11 11 10 7 6 5 5 5 7 8 9 10 11 12 12 12 12 11 11 11 10 9 8 9 9 11 10 9 8 8 9 8 8 7 7 7 7 6 7 7 6 7 6 6 6 6 6 5 5 5 4 5 5 5 4 5 4 4 4 4 4 4 4 4 3 4 4 4 4 4 3 3 3
7 5 10 7 8 6 4 4 5 6 3 0 7 6 4 1 1 5 6 7 9 12 9 7 9 8 7 7 6 6 6 5 7 7 9 11 11 12 12 12 11 11 11 10 9 9 8 8 9 10 9 8 8 9 8 9 8 7 7 7 7 6 7 6 6 6 7 7 5 6 5 4 5 5 5 5 4 5 5 5 5 5 5 5 4 4 4 4 3 3 3 4 3 3 3 3 3
4 3 6 8 7 4 7 7 7 4 5 3 3 3 1 2 4 6 3 7 8 10 11 12 9 6 7 6 6 5 6 5 7 9 9 8 8 8 9 10 10 10 10 10 10 9 9 9 10 10 11 10 9 8 8 9 8 7 7 7 7 7 6 6 5 5 5 6 7 7 6 6 5 5 4 4 4 4 5 5 4 5 5 4 4 4 4 4 3 3 3 3 4 2 3 4 3
4 5 5 5 2 7 5 4 4 2 5 1 1 2 1 4 2 6 6 10 10 10 9 11 9 8 6 4 4 5 4 5 5 8 10 10 9 8 9 9 8 7 8 9 10 11 11 10 10 9 8 8 9 9 8 8 7 7 7 7 7 6 7 7 7 7 7 6 6 6 6 6 5 4 4 4 4 4 4 4 4 4 4 4 4 4 4 4 3 3 4 3 4 3 3 5 3
6 4 7 2 3 5 5 4 1 3 3 2 1 2 3 1 2 1 7 10 12 11 11 11 11 9 8 6 5 5 6 5 4 4 5 9 11 11 10 9 10 10 11 10 10 8 8 9 10 11 9 9 9 9 8 8 8 8 8 8 7 7 7 7 6 6 5 5 5 5 4 4 6 5 5 4 4 4 4 4 4 4 4 3 4 3 3 4 3 3 4 4 3 3 4 2 3
12 9 7 7 1 4 1 5 2 2 1 2 2 1 2 4 2 2 7 9 12 11 10 10 11 12 8 6 6 4 5 4 5 5 5 7 9 10 10 10 10 9 8 9 8 8 7 7 8 9 11 11 10 7 7 6 7 6 6 7 7 6 5 5 5 5 5 5 6 5 6 7 5 5 5 5 5 5 4 4 4 4 3 4 4 4 4 3 4 4 3 3 3 3 3 4 3
5 7 5 0 5 3 4 3 4 5 3 2 4 2 3 3 3 3 6 6 10 11 12 10 7 8 9 7 7 7 5 4 4 4 4 3 3 8 11 11 10 10 9 9 8 7 8 8 7 7 5 5 6 7 6 7 6 5 5 5 6 6 6 6 6 6 5 6 6 6 6 6 7 6 6 6 6 6 5 5 5 4 4 4 4 4 4 4 3 4 3 3 3 3 4 5 4
4 5 3 0 2 2 6 2 2 5 7 4 3 1 5 2 2 2 4 5 7 8 10 8 7 7 6 6 5 5 4 3 3 3 3 3 2 1 1 3 7 7 7 7 8 9 9 7 7 7 9 9 9 9 8 7 5 5 5 7 7 7 7 6 6 6 6 6 6 6 6 6 4 5 6 6 6 6 6 5 5 5 5 5 5 4 4 4 4 4 4 4 4 4 5 4 4
11 9 8 8 7 5 6 2 1 2 6 4 5 5 3 2 1 2 6 5 7 8 9 8 7 7 5 6 6 6 5 5 5 4 4 4 4 4 4 4 5 7 8 9 7 7 7 8 7 7 6 5 6 6 7 7 6 6 7 6 6 6 6 6 7 6 6 6 6 6 6 5 6 6 5 6 6 5 5 5 5 5 5 5 5 5 4 4 4 5 5 3 4 4 5 5 4
Wind_Direction
134 95 101 109 104 150 58 316 33 325 50 50 71 29 218 41 120 93 97 127 124 225 244 113 126 138 159 191 172 113 341 138 205 141 210 200 123 128 127 129 127 119 112 114 113 131 140 165 183 199 114 111 107 107 106 103 103 104 104 104 103 101 100 102 104 106 109 110 111 111 110 109 107 107 109 112 114 115 116 112 116 106 98 109 108 107 105 103 99 96 96 97 99 98 102 110 113
116 112 109 115 124 67 7 296 106 56 32 48 302 109 254 354 84 158 157 154 147 150 117 126 116 81 42 111 129 122 40 37 35 115 76 106 118 86 132 138 135 124 120 121 131 151 166 170 174 113 104 102 107 108 110 108 107 105 102 100 97 100 103 104 107 109 113 114 113 112 111 111 109 109 112 114 115 118 120 112 110 108 110 114 111 110 110 108 103 101 100 97 98 101 100 100 101
126 129 93 25 58 90 164 123 75 118 91 120 275 199 354 83 162 149 178 162 120 108 115 111 97 59 79 103 79 27 183 68 90 90 102 135 126 159 143 141 120 116 122 122 133 145 120 111 99 104 108 112 115 113 113 112 107 103 99 99 101 102 106 109 109 111 109 113 113 114 112 112 114 115 116 118 120 123 123 118 117 118 113 105 107 112 111 108 106 104 102 100 101 99 99 99 104
125 117 132 110 358 296 81 43 134 124 114 178 77 306 159 177 145 157 201 91 124 119 126 129 120 277 101 58 108 78 77 115 119 132 132 163 208 142 143 127 117 122 119 112 120 108 90 113 101 104 120 116 120 115 111 110 109 109 114 112 107 114 109 111 110 109 113 119 118 114 113 115 118 119 111 106 122 127 117 109 113 115 116 117 110 113 113 108 105 103 102 102 103 103 102 102 103
130 172 164 75 114 26 58 21 71 62 128 187 156 263 233 104 125 127 159 105 128 132 129 119 83 3 98 97 33 90 191 101 129 130 121 108 125 142 139 130 129 132 119 110 103 99 108 117 114 126 116 119 117 110 102 120 112 111 109 109 112 106 104 112 114 110 110 105 107 117 116 119 120 120 118 123 104 97 107 117 120 114 110 101 106 119 112 106 101 100 102 104 106 105 103 104 105
74 110 260 77 50 59 74 35 354 90 246 157 107 159 150 104 131 153 109 119 126 80 106 99 129 153 53 23 11 83 132 149 159 119 143 140 144 142 136 133 131 128 119 95 102 93 111 123 114 123 125 125 113 108 118 111 113 111 113 113 114 118 120 122 115 115 118 119 120 116 117 117 120 120 122 115 104 116 117 121 109 112 115 119 118 113 110 104 98 97 106 109 106 109 113 109 105
135 162 263 143 95 136 117 103 175 128 21 0 109 110 150 142 118 119 115 107 355 75 25 111 113 100 84 119 61 61 26 125 135 141 153 141 142 139 135 130 126 126 119 110 105 109 141 122 117 116 112 112 114 113 109 107 106 118 116 124 129 120 113 110 119 116 115 116 118 117 116 118 118 113 103 112 116 116 118 111 123 127 122 120 115 114 113 105 104 103 113 112 115 114 110 106 106
346 11 341 42 37 22 71 72 223 151 14 25 5 75 112 113 113 125 129 122 164 122 107 129 90 89 85 7 108 39 46 62 95 105 128 139 138 135 133 131 127 132 123 118 114 139 128 111 119 111 116 115 109 106 107 111 116 115 122 114 113 116 120 124 122 118 115 114 114 114 116 110 114 119 124 119 115 111 120 121 115 115 112 117 117 117 112 109 110 116 113 113 115 110 109 111 108
15 84 244 31 90 207 59 109 86 80 78 32 22 81 98 118 95 124 107 86 99 97 126 127 124 84 106 86 70 93 76 98 102 121 133 131 133 133 132 134 132 124 126 121 116 96 95 123 114 110 109 105 102 105 106 107 113 116 110 114 113 129 127 123 114 111 110 102 108 113 103 107 112 124 124 120 119 120 113 113 115 114 114 115 120 122 114 115 116 113 120 112 109 105 107 109 111
74 338 294 110 287 108 157 139 152 71 106 20 80 71 154 350 63 90 120 106 123 119 81 71 74 109 116 93 101 76 112 112 119 123 127 131 130 127 126 127 130 129 125 122 117 110 135 120 111 113 116 110 108 105 110 107 113 110 115 119 125 129 119 111 107 105 97 106 106 102 114 114 114 106 92 105 111 113 119 116 117 113 109 113 119 118 121 124 124 125 115 104 96 98 108 112 110
101 110 334 87 110 120 182 207 135 52 93 101 51 14 354 26 87 89 100 108 100 111 108 100 75 118 117 83 61 95 117 117 128 132 135 132 127 124 118 120 127 130 126 123 119 106 78 108 117 113 112 103 95 97 98 113 112 109 108 122 124 116 110 105 104 103 104 90 86 88 97 101 104 104 107 106 109 109 116 114 118 120 119 122 126 124 121 120 116 109 107 104 97 99 108 110 109
356 179 81 85 185 173 177 161 119 101 99 75 26 330 307 38 63 105 121 120 114 110 126 128 147 128 83 104 120 123 124 122 124 130 134 128 122 119 118 118 120 121 121 122 116 86 74 78 80 113 102 100 96 90 98 92 91 99 105 143 124 118 107 107 103 100 92 87 85 89 92 94 98 102 106 102 87 96 109 118 123 129 132 129 127 117 113 109 107 109 109 101 100 100 102 104 107
195 39 97 143 195 199 160 131 127 131 100 121 142 312 305 40 84 128 90 94 111 113 127 86 144 188 112 118 114 127 130 129 133 136 129 124 120 116 111 113 116 118 120 115 103 93 86 79 80 98 96 97 92 83 87 101 113 91 130 142 114 107 104 102 100 96 93 90 83 85 90 80 79 85 102 102 109 106 108 121 130 131 133 128 128 127 123 116 116 110 103 95 92 99 101 104 105
147 217 145 241 115 137 167 113 129 139 159 122 14 109 16 77 349 119 113 100 117 103 112 127 88 101 101 115 134 146 139 140 140 134 121 116 115 112 110 112 116 114 108 105 101 97 83 84 80 86 76 76 72 81 91 116 98 81 212 134 110 105 103 100 99 96 96 89 91 93 84 71 66 78 83 98 100 103 130 128 123 126 123 138 132 124 120 119 113 107 100 93 91 92 97 95 93
198 80 129 260 145 164 312 148 172 155 153 139 172 140 118 50 97 105 118 120 43 127 113 64 141 92 186 168 159 169 149 149 141 127 117 113 111 109 111 111 111 106 98 96 96 92 89 89 90 97 94 82 78 85 117 89 84 205 153 108 103 92 91 92 96 98 97 101 91 88 84 81 70 66 73 82 95 119 123 112 126 126 137 151 131 117 114 104 96 94 84 82 86 88 87 96 98
118 67 25 286 152 161 187 117 107 133 163 154 156 170 90 72 38 116 145 140 131 122 111 144 29 203 137 208 153 142 142 144 135 123 118 114 110 106 110 113 109 101 96 100 93 91 97 89 89 100 107 115 135 117 69 70 212 176 114 100 95 93 88 82 84 101 95 94 88 79 79 73 68 70 76 87 106 112 122 121 134 153 156 118 115 122 113 106 100 96 93 92 88 85 86 90 88
59 258 155 221 48 187 202 161 153 178 139 125 144 185 133 113 270 59 118 101 131 151 78 70 43 98 126 119 132 131 141 135 126 125 119 116 118 118 116 119 119 109 110 110 101 103 95 92 84 92 110 123 112 85 117 212 145 67 63 91 90 89 83 68 58 62 73 69 74 79 68 62 55 53 30 65 90 117 128 135 132 134 115 114 113 109 107 106 106 98 93 92 84 80 85 84 79
181 202 329 283 261 204 199 185 161 86 138 143 160 205 126 116 98 114 96 65 58 68 80 75 60 71 96 113 122 135 136 131 134 132 131 129 133 135 137 137 135 139 133 122 106 106 99 93 94 97 95 90 101 117 143 74 42 56 71 67 59 67 79 75 61 57 58 48 60 58 59 65 76 67 68 70 63 52 80 107 97 105 109 102 110 105 106 104 101 99 93 88 83 81 70 56 63
202 233 68 304 265 281 24 36 28 119 139 137 139 53 116 127 126 172 108 110 108 86 85 97 93 92 102 114 133 137 135 135 139 140 141 144 149 149 146 144 145 139 143 138 123 110 108 105 108 105 100 101 89 86 76 69 60 66 63 63 62 69 64 61 58 62 55 56 55 58 57 58 64 78 81 90 81 133 118 103 92 94 95 110 102 105 104 103 103 97 90 89 85 70 64 65 66
232 230 48 263 304 117 107 109 112 38 124 126 126 138 88 156 112 176 126 127 111 125 121 110 119 127 129 135 140 140 139 140 143 147 148 151 153 152 150 151 150 153 151 152 143 113 117 117 117 118 121 114 105 98 80 67 66 70 73 71 71 72 67 66 65 66 60 58 53 54 50 50 53 59 66 68 77 17 78 79 83 89 93 87 91 84 83 86 95 93 95 77 61 59 66 74 79
141 157 237 238 188 142 115 74 120 119 126 124 115 105 101 107 38 125 134 117 137 160 155 148 150 141 138 145 144 145 145 146 146 151 150 148 144 140 142 148 152 148 148 138 135 132 127 123 122 115 116 114 111 100 94 80 76 76 72 78 79 78 74 69 65 62 65 61 54 53 47 50 52 63 91 84 72 68 58 76 63 50 63 62 72 64 56 63 66 61 53 52 47 52 56 48 55
103 32 241 207 163 110 121 98 110 121 117 110 119 129 137 152 51 132 147 155 183 173 168 148 145 146 144 150 150 145 149 149 152 155 160 158 154 147 138 118 115 118 136 145 153 147 141 132 126 128 116 109 103 102 105 105 91 87 90 89 85 74 76 74 65 61 66 65 61 58 53 46 50 53 52 71 70 65 63 61 66 66 64 60 49 63 56 59 59 53 57 55 42 60 64 59 44
70 206 314 331 252 159 147 122 119 116 120 119 120 140 96 75 93 143 106 104 129 133 137 139 140 143 139 140 145 149 151 154 158 162 162 160 156 153 147 142 144 147 151 147 147 147 146 129 129 127 123 114 102 102 84 92 91 101 105 113 98 86 80 82 74 63 66 74 69 70 62 47 57 59 56 48 50 54 55 49 51 44 50 49 34 54 56 48 54 53 52 48 38 47 48 50 54
75 243 177 58 83 149 151 119 115 92 98 98 103 115 74 120 115 122 91 100 115 125 127 130 132 134 138 143 153 153 152 156 161 162 167 169 164 159 154 147 143 128 132 149 153 152 153 147 136 128 127 123 115 103 97 99 105 109 126 112 103 114 91 84 85 83 70 74 77 74 78 66 65 68 60 58 57 61 51 53 49 41 37 43 28 45 44 41 49 53 52 40 40 38 29 30 42
144 154 139 108 116 139 125 113 98 87 79 28 79 61 76 66 128 92 134 125 121 125 129 131 134 135 139 144 151 152 149 151 158 155 154 153 153 144 137 133 135 139 143 159 156 155 159 150 143 135 137 126 116 109 106 105 105 100 99 113 131 119 103 92 95 91 79 76 76 79 83 72 52 67 63 62 74 67 60 53 50 42 38 29 25 33 38 27 39 39 49 44 37 26 16 16 32
190 176 160 140 122 116 115 109 102 108 106 143 84 75 60 63 187 64 143 133 129 132 134 135 135 139 146 153 155 157 157 157 153 156 162 149 152 152 153 149 144 153 153 153 156 158 154 148 154 150 144 133 125 117 111 118 112 109 116 126 152 109 108 108 93 82 72 80 82 77 80 85 75 76 72 55 70 60 57 50 49 35 34 23 30 25 14 23 23 43 28 38 29 18 13 352 11
143 135 133 119 129 108 92 104 113 98 82 155 126 98 74 11 51 107 130 138 133 136 139 140 142 147 150 155 156 161 160 162 161 147 141 150 157 164 157 150 155 152 144 155 157 155 152 154 161 154 144 150 126 121 125 119 121 119 124 107 100 114 123 117 96 89 90 95 106 97 91 86 90 80 77 78 70 63 54 54 40 22 32 23 25 20 12 30 50 61 329 20 12 360 1 345 337
119 135 112 108 109 87 111 104 106 109 69 121 99 70 73 13 52 216 152 145 141 141 145 145 147 149 153 152 158 161 163 161 151 154 160 165 170 167 166 163 159 151 155 159 156 150 150 159 160 157 148 144 144 130 134 136 138 138 137 108 108 123 131 125 119 119 111 127 126 114 105 91 102 91 93 79 84 76 59 55 37 25 22 14 26 20 15 49 91 246 343 339 352 9 355 337 327
143 137 119 122 127 101 105 118 145 140 107 125 115 83 38 11 122 337 156 145 145 146 148 148 151 152 150 150 152 161 167 161 160 167 170 168 158 164 167 167 162 156 153 150 148 153 153 158 157 162 154 149 140 144 132 133 129 142 144 138 124 134 134 135 134 140 129 140 142 133 118 124 104 114 100 90 92 92 82 59 41 12 359 352 355 20 60 30 73 12 7 359 33 24 11 14 9
129 82 121 134 133 62 346 86 110 98 105 155 118 147 204 234 234 94 161 147 143 144 150 154 153 154 151 151 159 161 162 162 173 178 168 164 164 167 165 165 164 156 148 140 145 154 150 153 151 155 162 157 159 142 142 138 144 147 147 133 140 136 133 137 142 140 141 141 143 130 124 143 107 114 111 87 89 91 74 62 29 345 334 331 334 100 78 332 50 44 8 10 17 28 14 352 10
129 119 54 111 137 157 298 320 140 109 142 156 37 138 187 211 244 140 160 150 149 153 156 159 156 157 156 157 161 167 172 181 180 176 174 169 166 166 166 160 162 147 139 146 157 152 150 148 163 168 167 157 166 158 158 152 155 152 150 149 139 141 138 138 136 138 138 146 145 144 132 159 129 130 100 98 75 62 70 39 352 311 313 323 16 86 123 45 61 52 20 13 6 27 14 8 7
139 105 198 331 121 145 159 231 211 131 185 252 39 111 179 172 181 149 160 159 153 153 159 161 161 159 162 161 165 172 180 186 189 185 180 177 171 170 172 170 163 155 157 155 152 150 148 150 164 162 165 163 165 165 147 152 155 145 151 171 136 141 140 141 144 148 143 134 149 149 146 180 131 108 92 92 96 96 131 93 285 277 277 1 5 26 74 61 73 68 49 45 15 5 9 359 5
334 112 163 163 125 150 127 202 268 347 133 130 223 149 113 207 194 144 161 158 158 154 160 164 164 165 164 168 171 175 177 194 198 197 187 178 178 175 173 168 171 165 156 154 156 155 149 157 168 163 172 168 165 157 141 146 136 143 145 157 144 149 147 148 149 144 147 153 144 156 159 212 100 134 135 132 147 159 163 230 253 228 189 125 75 38 55 50 48 43 44 49 60 1 1 348 343
243 69 143 170 152 159 182 97 259 230 148 159 224 134 162 134 145 140 159 162 155 159 164 166 168 168 171 170 173 178 187 190 203 202 196 184 180 176 173 170 168 163 160 157 160 160 158 160 166 165 167 167 162 147 147 143 146 126 125 122 168 158 159 161 150 146 155 162 152 172 184 205 200 198 185 158 162 175 185 227 250 178 147 105 90 69 57 81 66 56 42 48 37 3 346 348 340
176 107 116 158 134 187 156 168 190 163 171 151 122 111 110 141 132 138 164 163 160 166 169 171 171 172 175 176 180 184 190 195 207 203 195 187 179 176 165 164 162 165 162 160 158 155 147 158 157 164 161 163 151 129 125 122 122 110 89 125 146 131 136 150 151 140 151 155 170 174 190 205 209 190 202 171 149 223 155 213 134 152 149 125 96 85 66 61 66 59 51 1 360 288 233 285 313
172 148 148 161 165 189 176 169 127 168 136 131 151 151 134 149 139 125 149 169 166 168 170 172 176 175 177 181 185 187 192 205 205 199 192 185 180 169 161 159 164 166 161 159 156 153 149 153 150 150 157 149 127 120 122 129 131 142 148 146 128 205 172 175 166 159 145 159 174 177 192 193 197 183 197 171 192 181 161 166 124 114 136 119 103 76 45 47 47 41 27 24 1 351 29 12 8
119 86 143 178 153 86 94 99 149 132 121 170 163 138 143 157 159 134 108 133 168 167 173 179 181 179 181 184 188 190 194 207 196 189 186 185 179 168 158 156 161 161 161 162 160 162 158 161 153 158 157 145 142 141 145 145 142 137 139 166 181 195 190 184 175 164 158 163 170 174 177 180 169 178 183 170 180 169 148 137 109 98 111 97 100 111 136 98 78 79 49 46 25 15 343 354 24
148 156 168 161 129 133 130 127 142 158 180 179 205 144 162 162 135 107 123 129 173 177 178 181 185 184 184 184 189 192 202 205 171 178 184 179 172 162 153 153 156 161 173 169 171 170 164 158 162 155 147 154 155 160 157 157 167 172 160 176 160 174 182 182 182 186 179 166 166 169 167 163 168 181 174 176 174 157 147 143 145 142 111 105 117 151 112 66 50 34 33 23 43 32 324 312 325
170 168 172 137 123 109 67 110 134 144 90 183 171 172 157 164 145 130 132 138 122 180 186 182 184 185 186 188 190 196 196 192 177 185 175 179 173 164 161 164 173 175 171 175 173 164 163 162 164 156 157 158 166 163 152 165 165 150 139 158 162 141 192 184 171 164 170 166 172 167 165 163 167 182 178 172 167 167 151 149 152 144 134 141 111 51 57 62 52 45 43 57 344 42 287 270 339
127 117 146 188 162 152 160 158 135 54 114 176 178 159 160 139 109 96 64 65 178 177 265 198 183 185 189 189 189 193 192 183 184 178 181 177 173 168 164 170 171 162 166 169 171 170 167 164 162 161 161 163 167 173 176 161 137 123 114 144 142 151 160 154 158 144 167 157 173 174 169 166 170 175 180 173 164 164 156 156 149 149 141 132 133 120 74 82 82 62 76 110 101 15 4 318 18
278 173 165 117 169 190 128 152 93 138 24 140 168 137 151 164 169 183 144 70 321 323 356 213 205 195 192 188 192 191 186 184 181 181 178 174 171 178 180 174 161 167 174 178 175 175 177 171 165 165 164 167 173 178 166 139 129 104 107 118 118 90 100 132 142 152 171 174 159 179 187 167 170 174 177 172 160 155 156 150 154 151 142 131 123 118 142 103 76 74 154 115 64 82 352 337 307
294 250 186 183 160 116 108 122 128 133 153 197 164 177 217 171 179 177 160 173 263 250 216 213 206 202 177 187 199 197 194 184 178 180 180 178 181 181 171 164 172 175 181 185 179 175 170 167 158 159 158 160 171 179 156 154 155 147 136 141 154 144 147 158 177 177 171 177 184 182 164 174 171 170 173 171 164 148 154 157 146 146 141 139 137 139 128 110 82 121 238 122 97 141 76 9 313
115 254 188 157 142 127 137 142 147 173 179 190 228 187 166 157 178 181 173 192 213 243 233 224 203 192 186 193 194 192 191 189 185 180 179 178 182 176 178 178 180 182 187 171 173 172 169 167 164 161 163 165 167 167 158 154 144 157 164 166 165 167 160 197 172 165 165 166 149 166 165 174 175 167 172 169 160 158 141 148 153 146 143 148 154 130 136 150 157 197 190 122 151 128 115 357 328
220 248 153 143 131 141 155 160 162 93 54 124 190 296 133 162 193 183 174 190 204 223 236 225 203 193 195 196 191 191 192 188 182 183 183 184 180 181 185 187 182 190 169 166 171 170 168 171 167 164 162 163 168 158 163 165 161 166 163 165 155 165 175 182 176 169 154 148 155 163 157 170 168 170 162 163 159 155 145 149 155 153 155 165 169 176 182 176 162 210 260 236 96 157 171 169 329
227 309 153 154 145 143 149 145 115 135 124 166 202 193 59 276 144 165 173 193 212 217 218 215 203 197 197 195 194 191 192 190 183 181 185 184 185 189 187 187 193 167 163 174 179 174 167 166 168 160 160 161 163 162 164 172 168 170 169 161 174 198 181 142 134 149 148 151 157 152 163 164 164 170 163 161 163 163 171 161 161 161 168 175 183 168 168 168 209 268 273 210 205 139 169 132 98
338 93 76 82 80 78 89 64 70 26 69 205 188 195 125 285 159 179 197 216 207 208 209 209 198 195 192 192 194 191 191 193 190 186 185 187 189 189 190 187 174 183 178 170 163 154 158 159 163 165 164 163 161 165 165 166 167 162 164 172 181 192 161 116 135 153 159 158 168 170 164 164 169 167 177 166 165 175 176 161 163 175 184 175 192 178 167 172 216 231 237 236 194 156 185 167 143
142 94 95 73 60 70 62 62 84 67 313 243 182 184 163 191 206 190 187 213 195 185 192 186 165 160 175 174 179 183 184 190 194 193 189 189 189 186 174 180 189 171 158 160 161 163 159 164 166 171 173 163 161 165 164 166 164 169 176 181 185 182 175 151 143 150 144 151 176 178 177 186 171 178 173 182 175 172 178 176 171 183 182 191 194 180 198 213 225 224 226 206 192 172 181 190 117
127 105 119 96 32 29 42 3 23 77 266 255 166 181 126 203 253 213 222 105 174 177 182 181 172 163 161 162 165 173 178 184 189 188 194 187 172 178 181 186 178 174 159 166 165 160 165 168 169 173 172 169 164 162 166 167 166 175 178 179 185 186 172 170 176 178 178 181 183 181 176 162 188 177 180 173 186 177 177 186 189 179 187 189 211 205 210 208 218 207 199 204 206 195 186 170 143
94 120 123 115 122 45 9 13 40 212 215 327 151 149 66 253 215 264 197 189 177 187 184 181 165 161 165 158 144 144 166 178 180 185 180 175 178 176 183 187 172 169 182 179 174 171 168 169 173 172 182 179 172 165 170 170 170 175 177 181 189 180 182 181 180 181 182 182 180 173 171 187 177 186 195 189 196 183 174 179 191 189 201 208 206 200 221 214 215 209 210 208 196 190 190 180 158
133 141 140 105 104 80 108 296 344 327 294 284 155 167 235 236 245 202 238 205 187 181 189 169 147 160 161 144 141 135 121 155 183 178 176 180 182 185 184 179 183 188 186 183 177 171 171 174 177 180 184 181 175 171 171 171 179 176 177 180 184 178 185 185 185 181 181 185 178 182 183 187 187 201 186 201 194 179 185 193 192 200 199 203 202 207 213 212 208 218 210 204 208 205 172 191 192
172 152 155 161 148 154 158 176 183 203 207 334 134 138 229 129 203 300 243 234 181 177 163 134 137 150 141 140 140 127 126 141 157 171 182 184 188 187 184 187 189 188 185 182 180 177 170 174 179 186 180 183 180 179 174 177 179 178 178 181 180 180 182 185 191 186 178 176 178 176 189 180 194 202 198 208 182 182 192 186 192 194 197 199 196 205 211 208 209 214 217 220 226 184 191 187 210
208 160 64 121 197 156 159 189 156 152 130 94 173 200 196 164 288 290 235 157 137 131 128 134 138 132 140 150 146 149 143 136 159 168 178 186 190 193 193 191 191 188 184 184 183 175 178 181 181 188 186 183 184 182 184 181 181 173 174 178 184 183 182 183 185 185 182 182 176 183 188 191 199 198 201 190 199 191 191 196 196 206 200 201 199 203 212 212 204 203 227 215 234 179 192 202 213
204 121 169 206 173 111 98 71 90 109 62 260 196 340 292 292 313 11 88 111 129 137 143 141 144 153 152 154 138 151 151 135 150 173 179 181 181 185 191 193 190 187 185 188 186 186 186 177 177 187 191 184 185 190 186 183 177 173 179 179 177 181 180 176 182 186 182 183 180 186 186 193 185 182 191 193 189 196 203 197 198 209 206 206 208 212 215 221 217 217 222 212 230 218 198 222 204
105 163 221 122 86 110 117 150 353 62 142 227 56 231 295 52 228 86 105 135 150 155 163 165 156 163 167 171 165 168 166 156 134 138 172 184 184 184 187 189 186 187 190 190 192 189 184 184 182 181 184 190 195 188 188 185 183 183 179 181 182 182 182 180 180 180 176 169 183 183 179 179 194 189 181 192 177 189 198 208 200 213 214 207 217 224 221 227 213 226 226 224 224 197 212 216 217
155 185 166 128 202 247 337 100 106 105 302 267 305 325 278 176 234 182 153 152 160 159 161 160 167 178 178 175 163 176 167 151 139 146 170 189 188 188 186 186 185 189 193 193 185 175 179 192 192 186 189 195 192 190 188 189 188 188 186 186 180 178 177 174 172 171 164 176 185 184 191 201 186 178 177 183 185 186 186 203 203 215 205 214 214 222 216 219 209 220 225 237 228 205 213 232 230
4 102 111 96 113 146 124 205 161 110 183 93 282 88 233 215 183 188 172 158 154 152 157 164 167 168 174 182 176 188 192 155 142 156 179 203 224 201 187 180 178 180 183 183 175 172 185 190 187 191 177 169 173 187 187 196 198 192 186 174 185 181 178 174 174 170 175 187 193 189 198 186 197 182 185 180 183 187 186 189 200 209 211 211 213 222 214 211 208 220 216 228 230 212 228 238 247
110 121 154 230 33 223 102 42 94 157 165 184 151 300 259 249 226 276 156 140 153 158 156 154 162 166 164 161 152 154 175 143 126 163 133 77 31 6 191 174 173 172 178 171 173 181 183 173 183 180 184 186 191 193 185 194 182 197 192 193 190 185 186 178 175 178 182 193 193 197 197 205 181 197 185 182 187 192 190 191 192 201 210 207 212 220 209 207 210 225 223 222 222 214 229 246 254
159 152 182 159 125 121 145 223 7 96 112 184 141 228 283 286 2 260 127 134 151 140 131 128 139 149 133 113 111 131 133 116 120 102 92 85 54 42 67 102 136 155 165 169 170 163 165 180 178 175 181 195 193 196 200 192 187 192 201 203 197 188 184 181 185 182 187 187 195 199 197 181 195 203 185 195 193 188 190 187 191 199 204 209 212 214 210 201 214 226 236 223 228 222 228 241 243